www.pogodaiklimat.ru

Погода и климат >> Архив погоды >> Узбекистан >> Бузаубай


ПОГОДА в Бузаубае

  • Прогноз погоды в Бузаубае
  • Монитор погоды в Бузаубае

АРХИВ ПОГОДЫ в Бузаубае

Время (UTC), дата Ветер
(напр.,м/с)
 
Видим.   Явления Облачность Т
(С)
Тd
(С)
f
(%)
Тe
(С)
Тes
(С)
Комфортность P
(гПа)
Po
(гПа)
Тmin
(С)
Tmax
(С)
R
(мм)
R24
(мм)
S
(см)
21 11.09 С 3 н/о ясно +19.0 +2.9 34 +19 +19 1022.3 1010.7
00 12.09 С 3 н/о ясно +17.0 +3.0 39 +17 +17 1022.2 1010.5
03 12.09 С 3 10 км ясно +17.3 +2.9 38 +17 +19 1022.3 1010.6
06 12.09 СВ 3 10 км ясно +24.7 +6.5 31 +25 +33 комфорт 1022.2 1010.8 +17.0
09 12.09 СВ 3 10 км ясно +28.0 +7.7 28 +28 +38 жарко 1021.5 1010.3
12 12.09 СВ 4 10 км ясно +29.4 +8.1 26 +29 +31 жарко 1019.3 1008.1
15 12.09 С 2 н/о 3/0
[Ci fib]
+26.5 +6.8 29 +26 +26 жарко 1018.3 1007.0 +29.7
18 12.09 С 3 н/о 8/0
[Ci fib]
+22.0 +5.1 33 +22 +22 комфорт 1018.9 1007.4 +29.7
21 12.09 С 2 н/о 6/0
[Ci fib]
+20.1 +4.6 36 +21 +21 комфорт 1019.1 1007.6
00 13.09 С 3 н/о 8/0
[Ac lent]
+19.3 +5.0 39 +20 +20 1017.8 1006.2
03 13.09 С 3 10 км 8/0
[Ac und]
+19.5 +5.1 39 +20 +21 1018.7 1007.1
06 13.09 СВ 2 10 км 4/0
[Ci fib]
+24.6 +6.5 31 +25 +34 комфорт 1018.5 1007.2 +19.3
09 13.09 В 1 10 км 3/0
[Ci fib]
+28.8 +8.1 27 +28 +41 жарко 1017.7 1006.5
12 13.09 С 1 10 км 3/0
[Ci fib]
+29.2 +7.7 26 +28 +32 жарко 1017.1 1005.9
15 13.09 С 1 н/о 6/0
[Ac As]
+27.4 +7.4 28 +27 +27 жарко 1016.4 1005.1 +29.6
18 13.09 С 2 н/о 8/0
[Ac cast]
+25.2 +8.2 34 +26 +26 жарко 1018.0 1006.7 +29.6
21 13.09 СВ 2 н/о ясно +21.8 +6.5 37 +23 +23 комфорт 1016.7 1005.3
00 14.09 С 2 н/о 4/0
[Ci fib]
+17.6 +4.0 40 +18 +18 1016.9 1005.2
03 14.09 С 1 10 км 3/0
[Ci fib]
+18.6 +4.5 39 +20 +21 1017.3 1005.7
06 14.09 С 1 10 км 4/0
[Ac cast]
+27.3 +9.7 33 +28 +36 жарко 1017.1 1005.8 +17.6
09 14.09 С 1 10 км 6/6 1000 м
[Cu hum]
+29.0 +8.8 28 +29 +34 жарко 1016.7 1005.5
12 14.09 З 2 10 км 6/6 1000 м
[Cu hum]
+30.1 +8.1 25 +29 +30 жарко 1016.0 1004.9
15 14.09 СЗ 2 н/о 4/0
[Ac cuf]
+26.2 +6.8 29 +26 +26 жарко 1016.1 1004.9 +30.8
18 14.09 С 3 н/о ясно +23.0 +5.9 33 +23 +23 комфорт 1016.5 1003.1 +30.8
21 14.09 С 3 н/о ясно +20.4 +5.8 38 +22 +22 комфорт 1016.8 1005.4
00 15.09 штиль 0 н/о ясно +16.7 +3.8 42 +17 +17 1017.2 1005.3
03 15.09 З 1 10 км ясно +15.4 +1.9 40 +16 +18 1016.9 1005.2
06 15.09 С 3 10 км ясно +23.8 +7.1 34 +24 +33 комфорт 1018.6 1007.2 +15.4
09 15.09 СЗ 3 10 км 3/3 1000 м
[Cu hum]
+26.2 +5.9 27 +26 +32 жарко 1018.8 1007.5
12 15.09 С 2 10 км ясно +27.2 +5.6 25 +26 +29 жарко 1019.0 1007.7
15 15.09 СЗ 1 н/о ясно +24.0 +5.5 30 +24 +24 комфорт 1019.2 1007.9 +27.6
18 15.09 З 1 н/о ясно +18.5 +3.6 37 +20 +20 1019.4 1007.8 +27.6
21 15.09 З 1 н/о ясно +19.6 +4.8 38 +21 +21 комфорт 1019.0 1007.4
00 16.09 СВ 1 н/о ясно +16.8 +4.3 43 +18 +18 1019.1 1007.4
03 16.09 В 1 10 км ясно +15.1 +2.9 44 +16 +17 1019.7 1008.0
06 16.09 штиль 0 10 км 8/0
[Cs]
+24.4 +7.3 33 +25 +36 комфорт 1020.0 1008.7 +15.1
09 16.09 СЗ 1 10 км ясно +27.4 +6.2 26 +27 +40 жарко 1019.7 1008.4
12 16.09 С 2 10 км 3/0
[Ci fib]
+28.0 +5.8 24 +27 +29 жарко 1019.3 1008.1
15 16.09 С 1 н/о ясно +25.6 +6.4 29 +25 +25 комфорт 1019.1 1007.9 +28.5
18 16.09 штиль 0 н/о ясно +18.1 +3.2 37 +18 +18 1020.0 1008.4 +28.5
21 16.09 С 1 н/о ясно +15.0 +1.5 40 +16 +16 1020.0 1008.3
00 17.09 С 1 н/о ясно +14.4 +2.5 45 +15 +15 1019.9 1008.2
03 17.09 штиль 0 10 км ясно +14.4 +2.1 43 +14 +16 1019.8 1008.1
06 17.09 С 2 10 км ясно +27.6 +9.4 32 +28 +38 жарко 1019.4 1008.1 +14.4
09 17.09 В 2 10 км ясно +30.4 +8.4 25 +30 +41 жарко 1017.5 1006.4
12 17.09 В 2 10 км ясно +31.4 +7.6 23 +30 +33 жарко 1016.7 1005.6
15 17.09 С 1 н/о ясно +27.2 +7.1 28 +27 +27 жарко 1014.8 1003.5 +32.3
18 17.09 СВ 2 н/о ясно +20.8 +5.5 37 +22 +22 комфорт 1015.0 1003.6 +32.3
21 17.09 СВ 1 н/о 8/0
[Ac trans]
+20.0 +5.9 40 +22 +22 комфорт 1014.2 1002.8
00 18.09 С 2 н/о 3/0
[Ac trans]
+18.0 +5.5 44 +19 +19 1013.2 1001.7
03 18.09 СВ 2 10 км ясно +17.4 +5.5 45 +18 +19 1012.4 1000.8
06 18.09 В 2 10 км ясно +28.7 +11.7 35 +30 +39 жарко 1012.1 1001.0 +17.4
09 18.09 З 3 10 км ясно +33.3 +10.9 25 +33 +42 жарко 1010.7 999.8
12 18.09 З 3 10 км 3/0
[Ac cast]
+35.1 +10.5 22 +34 +36 очень
жарко
1010.2 999.3
15 18.09 З 1 н/о 3/0
[Ac cast]
+30.2 +9.2 27 +30 +30 жарко 1010.6 999.6 +35.7

 

Местоположение метеостанции Бузаубай (Хорезмская область, Узбекистан): широта 41.75 долгота 62.47 высота над уровнем моря 98 м.

В архиве по умолчанию представлена погода в Бузаубае за последнюю неделю. Архивные данные за месяц целиком и за предыдущие месяцы, начиная с января 2011 года, Вы можете получить, выбрав интересующий диапазон дат из раскрывающегося списка и нажав кнопку "Ввод!".


*Определитесь, кто Вы:
робот инопланетянин человек

Внимание! Время в таблицах - всемирное. Для получения местного времени необходимо прибавить поправку, которая равна 5 ч.

Смотрите также архив погоды в соседних городах и на ближайших метеорологических станциях:

Погода в Тюя-Муюне (Лебапский велаят, Туркменистан) (107 км)
Погода в Учкудуке (Навоийская область, Узбекистан) (109 км)
Погода в Джангельды (Бухарская область, Узбекистан) (123 км)
Погода в Дарганате (Лебапский велаят, Туркменистан) (143 км)
Погода в Зарафшане (Навоийская область, Узбекистан) (153 км)
Погода в Ургенче (Хорезмская область, Узбекистан) (159 км)
Погода в Гурлене (Хорезмская область, Узбекистан) (173 км)
Погода в Хиве (Хорезмская область, Узбекистан) (178 км)
Погода в Тамдыбулаке (Навоийская область, Узбекистан) (178 км)
Погода в Айякагитме (Узбекистан) (206 км)

Пояснения к столбцам:

Ветер - указаны скорость ветра в м/с - средняя за 10 мин, порывы в срок и между сроками (в фигурных скобках) и направление, откуда дует ветер: С - северный, СВ - северо-восточный, В - восточный, ЮВ - юго-восточный, Ю - южный, ЮЗ - юго-западный, З - западный, СЗ - северо-западный.
Видимость - горизонтальная дальность видимости в метрах или километрах. При видимости от 1 до 10 км при отсутствии осадков обычно наблюдается дымка, при ухудшении видимости до 1 км и менее - туман. В сухую погоду видимость может ухудшаться дымом, пылью или мглою.
Явления - указаны атмосферные явления, наблюдавшиеся в срок или в последний час перед сроком; фигурными скобками обозначены явления, наблюдавшиеся между сроками (за 1-3 часа до срока); квадратными скобками обозначены град или гололедные отложения с указанием их диаметра в мм.
Облачность - указаны через наклонную черту общая и нижняя облачность в баллах и высота нижней границы облаков в метрах; квадратными скобками обозначены формы облаков: Ci - перистые, Cs - перисто-слоистые, Cc - перисто-кучевые, Ac - высококучевые, As - высокослоистые, Sc - слоисто-кучевые, Ns - слоисто-дождевые, Cu - кучевые, Cb - кучево-дождевые. Подробнее классификацию облаков см. в Атласе облаков (PDF).
T - Температура воздуха - температура, измеренная на высоте 2 м над землей.
Td - Температура точки росы - температура, при понижении до которой содержащийся в воздухе водяной пар достигнет насыщения.
f - Относительная влажность воздуха - влажноcть воздуха, измеренная на высоте 2 м над землей.
Te - Эффективная температура - температура, которую ощущает одетый по сезону человек в тени. Характеристика душности погоды. При расчете учитывается влияние влажности воздуха и скорости ветра на теплоощущения человека.
Tes - Эффективная температура на солнце - температура, которую ощущает человек, с поправкой на солнечный нагрев. Характеристика знойности погоды. Зависит от высоты солнца над горизонтом, облачности и скорости ветра. Ночью, в пасмурную погоду, а также при ветре 12 м/с и более поправка равна нулю.
P - Атмосферное давление - приведенное к уровню моря атмосферное давление.
Po - Атмосферное давление - измеренное на уровне метеостанции атмосферное давление.
Tmin - Минимальная температура - минимум температуры воздуха на высоте 2 м над землей.
Tmax - Максимальная температура - максимум температуры воздуха на высоте 2 м над землей.
R - Количество осадков - Количество выпавших осадков за период времени, мм. При наведении курсора мыши на число - период времени, за который выпало указанное количество осадков.
R24 - Количество осадков - Количество выпавших осадков за 24 часа, мм.
S - Снежный покров - Высота снежного покрова, см. При наведении курсора мыши на число - состояние снежного покрова и степень покрытия местности в баллах.